Location: Hac?musa Deresi
(39.1694°N, 32.2508°E)
Time: 22:39:03
(UTC+00:00)

Cosmos 2322 Rocket - Pass Details

Date: 22 April 2026
Orbit: 832 x 849 km, 71.0° (Epoch: 9 May)

Event Time Altitude Azimuth Distance (km) Brightness Sun altitude
Rises 23:05:06 0° 349° (N) 3,394 6.0 -35.4°
Reaches altitude 10° 23:08:08 10° 4° (N) 2,459 5.3 -35.2°
Maximum altitude 23:12:26 22° 54° (NE) 1,761 4.3 -34.9°
Enters shadow 23:16:00 13° 99° (E) 2,264 4.6 -34.6°
